SJX381 RCTP-RPLL

Flight info

Callsign SJX381
Flight time N/A
Altitude 38000
Route TINHO1A/05R TINHO B591 GID Q11 POTIB M646 LAO/N0467F390 B462 CAB CAB7R
Aircraft A339/H-SADE1E2E3GHIJ3J5M1P2RWXY/LB2D1

Departure

Time N/A
Airport Taiwan Taoyuan International Airport (RCTP)

Arrival

Time 2026-05-06 14:53
Airport Ninoy Aquino International Airport (RPLL)
Time Latitude Longitude Altitude Speed Heading
2026-05-06 13:40 22.03474 121.20653 37978 ft 477 kts 207°
2026-05-06 13:41 22.00398 121.19312 37980 ft 477 kts 207°
2026-05-06 13:41 21.94224 121.16618 38050 ft 479 kts 207°
2026-05-06 13:41 21.91158 121.15282 38354 ft 478 kts 207°
2026-05-06 13:42 21.88036 121.13923 38744 ft 477 kts 207°
2026-05-06 13:42 21.84978 121.12592 38979 ft 477 kts 207°
2026-05-06 13:42 21.81900 121.11253 38980 ft 475 kts 207°
2026-05-06 13:43 21.75784 121.08592 38980 ft 475 kts 206°
2026-05-06 13:43 21.69635 121.05921 38980 ft 475 kts 207°
2026-05-06 13:44 21.63526 121.03271 38975 ft 475 kts 206°
2026-05-06 13:44 21.57413 121.00620 38978 ft 474 kts 207°
2026-05-06 13:45 21.51272 120.97960 38977 ft 473 kts 207°
2026-05-06 13:45 21.42094 120.93989 38975 ft 473 kts 206°
2026-05-06 13:46 21.36018 120.91361 38973 ft 472 kts 206°
2026-05-06 13:46 21.29932 120.88733 38972 ft 473 kts 206°
2026-05-06 13:47 21.23798 120.86086 38971 ft 474 kts 206°
2026-05-06 13:47 21.17695 120.83456 38962 ft 473 kts 206°
2026-05-06 13:48 21.11606 120.80833 38950 ft 472 kts 206°
2026-05-06 13:48 21.05432 120.78291 38947 ft 474 kts 202°
2026-05-06 13:49 20.99036 120.76379 38946 ft 477 kts 197°
2026-05-06 13:49 20.92425 120.75217 38945 ft 481 kts 190°
2026-05-06 13:50 20.85749 120.74637 38946 ft 483 kts 188°
2026-05-06 13:50 20.79044 120.74092 38951 ft 482 kts 188°
2026-05-06 13:51 20.72323 120.73543 38957 ft 481 kts 188°
2026-05-06 13:51 20.65685 120.72997 38955 ft 482 kts 188°
2026-05-06 13:52 20.58951 120.72442 38954 ft 482 kts 188°
2026-05-06 13:52 20.52257 120.71892 38955 ft 482 kts 188°
2026-05-06 13:53 20.45592 120.71345 38953 ft 481 kts 188°
2026-05-06 13:53 20.38904 120.70795 38952 ft 481 kts 188°
2026-05-06 13:54 20.32226 120.70247 38952 ft 481 kts 188°
2026-05-06 13:54 20.25552 120.69700 38950 ft 481 kts 188°
2026-05-06 13:55 20.18869 120.69152 38948 ft 482 kts 188°
2026-05-06 13:55 20.12176 120.68604 38946 ft 481 kts 188°
2026-05-06 13:56 20.05467 120.68057 38946 ft 481 kts 188°
2026-05-06 13:56 19.98810 120.67512 38944 ft 480 kts 188°
2026-05-06 13:57 19.92113 120.66966 38944 ft 480 kts 187°
2026-05-06 13:57 19.85451 120.66424 38950 ft 480 kts 187°
2026-05-06 13:58 19.78795 120.65880 38950 ft 480 kts 187°
2026-05-06 13:58 19.72144 120.65339 38949 ft 479 kts 187°
2026-05-06 13:59 19.65476 120.64797 38953 ft 479 kts 187°
2026-05-06 13:59 19.58807 120.64255 38949 ft 479 kts 187°
2026-05-06 14:00 19.52162 120.63718 38946 ft 479 kts 187°
2026-05-06 14:00 19.45523 120.63180 38944 ft 478 kts 187°
2026-05-06 14:01 19.38909 120.62643 38939 ft 478 kts 187°
2026-05-06 14:01 19.32270 120.62103 38939 ft 478 kts 187°
2026-05-06 14:02 19.25613 120.61564 38943 ft 477 kts 187°
2026-05-06 14:02 19.18965 120.61027 38939 ft 477 kts 187°
2026-05-06 14:03 19.12371 120.60496 38939 ft 478 kts 186°
2026-05-06 14:03 19.05730 120.59958 38941 ft 477 kts 186°
2026-05-06 14:04 18.99072 120.59419 38944 ft 476 kts 186°
2026-05-06 14:04 18.96882 120.59242 38945 ft 476 kts 186°
2026-05-06 14:05 18.85039 120.58289 38946 ft 476 kts 186°
2026-05-06 14:05 18.78509 120.57764 38947 ft 475 kts 186°
2026-05-06 14:06 18.71966 120.57240 38948 ft 475 kts 186°
2026-05-06 14:06 18.65336 120.56706 38954 ft 475 kts 186°
2026-05-06 14:07 18.58761 120.56176 38958 ft 475 kts 186°
2026-05-06 14:07 18.52155 120.55645 38963 ft 474 kts 186°
2026-05-06 14:08 18.45574 120.55118 38964 ft 474 kts 186°
2026-05-06 14:08 18.39028 120.54594 38963 ft 474 kts 186°
2026-05-06 14:09 18.32418 120.54067 38962 ft 474 kts 186°
2026-05-06 14:09 18.25867 120.53544 38963 ft 473 kts 186°
2026-05-06 14:10 18.19284 120.53349 38958 ft 475 kts 180°
2026-05-06 14:10 18.12653 120.53900 38960 ft 476 kts 174°
2026-05-06 14:11 18.06094 120.55072 38962 ft 477 kts 172°
2026-05-06 14:11 17.99556 120.56309 38968 ft 477 kts 172°
2026-05-06 14:12 17.93003 120.57518 38971 ft 477 kts 172°
2026-05-06 14:12 17.86501 120.58717 38986 ft 475 kts 172°
2026-05-06 14:13 17.79984 120.59924 39000 ft 474 kts 172°
2026-05-06 14:13 17.73466 120.61130 39003 ft 474 kts 172°
2026-05-06 14:14 17.66965 120.62329 39003 ft 474 kts 172°
2026-05-06 14:14 17.60470 120.63522 39013 ft 474 kts 172°
2026-05-06 14:15 17.53969 120.64719 39022 ft 473 kts 172°
2026-05-06 14:15 17.47450 120.65922 39031 ft 473 kts 171°
2026-05-06 14:16 17.40997 120.67114 39050 ft 473 kts 171°
2026-05-06 14:16 17.34481 120.68316 39061 ft 472 kts 171°
2026-05-06 14:17 17.28011 120.69508 39079 ft 471 kts 171°
2026-05-06 14:17 17.21557 120.70693 39103 ft 471 kts 171°
2026-05-06 14:18 17.15099 120.71880 39103 ft 471 kts 171°
2026-05-06 14:18 17.08604 120.73077 39117 ft 470 kts 171°
2026-05-06 14:19 17.02165 120.74262 39127 ft 470 kts 171°
2026-05-06 14:19 16.95727 120.75449 39137 ft 470 kts 171°
2026-05-06 14:20 16.89247 120.76643 39185 ft 470 kts 171°
2026-05-06 14:20 16.82778 120.77833 39227 ft 470 kts 171°
2026-05-06 14:21 16.76331 120.79018 39263 ft 470 kts 171°
2026-05-06 14:21 16.69862 120.80207 39263 ft 470 kts 171°
2026-05-06 14:22 16.63395 120.81394 39232 ft 471 kts 171°
2026-05-06 14:22 16.56953 120.82576 39199 ft 471 kts 171°
2026-05-06 14:23 16.50493 120.83761 39161 ft 471 kts 171°
2026-05-06 14:23 16.44022 120.84946 39146 ft 471 kts 171°
2026-05-06 14:24 16.37497 120.86141 38558 ft 475 kts 171°
2026-05-06 14:24 16.34238 120.86738 37921 ft 475 kts 171°
2026-05-06 14:24 16.30988 120.87332 37326 ft 475 kts 171°
2026-05-06 14:25 16.27765 120.87922 36733 ft 474 kts 171°
2026-05-06 14:25 16.24482 120.88522 36134 ft 473 kts 171°
2026-05-06 14:25 16.21232 120.89115 35495 ft 474 kts 171°
2026-05-06 14:25 16.18010 120.89704 34883 ft 473 kts 171°
2026-05-06 14:26 16.14777 120.90295 34275 ft 472 kts 171°
2026-05-06 14:26 16.11519 120.90891 33660 ft 472 kts 171°
2026-05-06 14:26 16.08275 120.91482 33043 ft 471 kts 171°
2026-05-06 14:26 16.05069 120.92067 32448 ft 471 kts 171°
2026-05-06 14:27 16.01813 120.92661 31908 ft 470 kts 171°
2026-05-06 14:27 15.98608 120.93247 31547 ft 464 kts 171°
2026-05-06 14:27 15.95440 120.93825 31098 ft 461 kts 171°
2026-05-06 14:27 15.92294 120.94399 30657 ft 458 kts 171°
2026-05-06 14:28 15.89140 120.94974 30245 ft 454 kts 171°
2026-05-06 14:28 15.86024 120.95543 29849 ft 450 kts 171°
2026-05-06 14:28 15.82947 120.96103 29460 ft 446 kts 171°
2026-05-06 14:28 15.79925 120.96653 29072 ft 441 kts 171°
2026-05-06 14:29 15.76876 120.97208 28690 ft 437 kts 171°
2026-05-06 14:29 15.73886 120.97754 28305 ft 434 kts 171°
2026-05-06 14:29 15.70946 120.98289 27930 ft 430 kts 171°
2026-05-06 14:29 15.67993 120.98827 27551 ft 427 kts 171°
2026-05-06 14:30 15.65057 120.99361 27169 ft 423 kts 171°
2026-05-06 14:30 15.62153 120.99889 26792 ft 420 kts 171°
2026-05-06 14:30 15.59284 121.00411 26582 ft 412 kts 171°
2026-05-06 14:30 15.56509 121.00916 26542 ft 399 kts 170°
2026-05-06 14:31 15.53800 121.01409 26488 ft 388 kts 170°
2026-05-06 14:31 15.51170 121.01883 26429 ft 376 kts 172°
2026-05-06 14:31 15.48590 121.02014 26294 ft 367 kts 184°
2026-05-06 14:31 15.46076 121.01592 25759 ft 371 kts 197°
2026-05-06 14:32 15.43625 121.00709 25214 ft 374 kts 201°
2026-05-06 14:32 15.41184 120.99730 24796 ft 374 kts 201°
2026-05-06 14:32 15.38782 120.98760 24436 ft 372 kts 201°
2026-05-06 14:32 15.36360 120.97791 24082 ft 370 kts 201°
2026-05-06 14:33 15.33968 120.96840 23719 ft 368 kts 201°
2026-05-06 14:33 15.31557 120.95886 23355 ft 366 kts 201°
2026-05-06 14:33 15.29179 120.94949 23000 ft 365 kts 201°
2026-05-06 14:33 15.26830 120.94025 22641 ft 364 kts 200°
2026-05-06 14:34 15.24450 120.93090 22278 ft 362 kts 200°
2026-05-06 14:34 15.22090 120.92165 21929 ft 361 kts 200°
2026-05-06 14:34 15.21315 120.91861 21820 ft 360 kts 200°
2026-05-06 14:35 15.15089 120.89420 20329 ft 353 kts 200°
2026-05-06 14:35 15.12802 120.88525 19666 ft 349 kts 200°
2026-05-06 14:35 15.10547 120.87641 19014 ft 346 kts 200°
2026-05-06 14:35 15.08321 120.86769 18362 ft 343 kts 200°
2026-05-06 14:36 15.06100 120.85900 17711 ft 340 kts 200°
2026-05-06 14:36 15.03895 120.85036 17068 ft 337 kts 200°
2026-05-06 14:36 15.01686 120.84172 16453 ft 333 kts 200°
2026-05-06 14:36 14.99556 120.83338 16062 ft 329 kts 200°
2026-05-06 14:37 14.97383 120.82489 15869 ft 330 kts 200°
2026-05-06 14:37 14.95980 120.81941 15708 ft 327 kts 200°
2026-05-06 14:37 14.93156 120.80836 14991 ft 323 kts 200°
2026-05-06 14:37 14.91052 120.80015 14346 ft 322 kts 200°
2026-05-06 14:38 14.88971 120.79203 13736 ft 320 kts 200°
2026-05-06 14:38 14.86891 120.78391 13122 ft 317 kts 200°
2026-05-06 14:38 14.84839 120.77591 12539 ft 316 kts 199°
2026-05-06 14:38 14.82781 120.76788 12147 ft 318 kts 199°
2026-05-06 14:39 14.80680 120.75969 11800 ft 319 kts 199°
2026-05-06 14:39 14.78596 120.75156 11481 ft 319 kts 199°
2026-05-06 14:39 14.76538 120.74355 11169 ft 317 kts 199°
2026-05-06 14:39 14.74484 120.73553 10878 ft 314 kts 199°
2026-05-06 14:40 14.72416 120.72742 10595 ft 313 kts 199°
2026-05-06 14:40 14.70394 120.71939 10388 ft 309 kts 199°
2026-05-06 14:40 14.68401 120.71143 10133 ft 308 kts 199°
2026-05-06 14:40 14.66415 120.70343 9869 ft 306 kts 199°
2026-05-06 14:41 14.64416 120.69534 9603 ft 305 kts 199°
2026-05-06 14:41 14.62437 120.68728 9346 ft 304 kts 199°
2026-05-06 14:41 14.60475 120.67926 9073 ft 303 kts 199°
2026-05-06 14:41 14.58503 120.67124 8810 ft 302 kts 199°
2026-05-06 14:42 14.56561 120.66335 8642 ft 297 kts 199°
2026-05-06 14:42 14.54648 120.65559 8522 ft 290 kts 199°
2026-05-06 14:42 14.52806 120.64809 8405 ft 284 kts 199°
2026-05-06 14:42 14.50983 120.64063 8283 ft 278 kts 199°
2026-05-06 14:43 14.49186 120.63322 8078 ft 274 kts 199°
2026-05-06 14:43 14.47415 120.62595 7815 ft 273 kts 199°
2026-05-06 14:43 14.45649 120.61873 7539 ft 271 kts 199°
2026-05-06 14:43 14.43839 120.61440 7238 ft 265 kts 175°
2026-05-06 14:44 14.42100 120.61874 7082 ft 251 kts 153°
2026-05-06 14:44 14.40552 120.62657 6830 ft 238 kts 148°
2026-05-06 14:44 14.39109 120.63462 6490 ft 233 kts 148°
2026-05-06 14:45 14.36334 120.65148 5813 ft 229 kts 131°
2026-05-06 14:45 14.35547 120.66512 5453 ft 223 kts 99°
2026-05-06 14:45 14.35385 120.68073 5257 ft 214 kts 90°
2026-05-06 14:45 14.35375 120.69564 5118 ft 205 kts 88°
2026-05-06 14:46 14.35396 120.70989 5023 ft 189 kts 88°
2026-05-06 14:46 14.35478 120.72327 5024 ft 186 kts 82°
2026-05-06 14:46 14.35681 120.73648 5016 ft 186 kts 78°
2026-05-06 14:46 14.36028 120.74923 5011 ft 186 kts 70°
2026-05-06 14:47 14.36553 120.76148 5003 ft 187 kts 63°
2026-05-06 14:47 14.37186 120.77342 4816 ft 187 kts 60°
2026-05-06 14:47 14.37829 120.78491 4577 ft 186 kts 60°
2026-05-06 14:47 14.38478 120.79645 4340 ft 186 kts 59°
2026-05-06 14:48 14.39134 120.80817 4090 ft 186 kts 60°
2026-05-06 14:48 14.39773 120.81963 3849 ft 185 kts 60°
2026-05-06 14:48 14.40412 120.83115 3611 ft 185 kts 59°
2026-05-06 14:48 14.41049 120.84264 3373 ft 185 kts 59°
2026-05-06 14:49 14.41680 120.85404 3139 ft 184 kts 59°
2026-05-06 14:49 14.42321 120.86561 2902 ft 182 kts 60°
2026-05-06 14:49 14.42932 120.87665 2678 ft 175 kts 59°
2026-05-06 14:49 14.43527 120.88740 2457 ft 169 kts 59°
2026-05-06 14:50 14.44064 120.89709 2252 ft 163 kts 59°
2026-05-06 14:50 14.44629 120.90727 2039 ft 156 kts 59°
2026-05-06 14:50 14.45155 120.91676 1843 ft 150 kts 59°
2026-05-06 14:50 14.45650 120.92567 1655 ft 143 kts 59°
2026-05-06 14:51 14.46133 120.93436 1475 ft 138 kts 60°
2026-05-06 14:51 14.46613 120.94299 1317 ft 139 kts 60°
2026-05-06 14:51 14.47090 120.95158 1156 ft 139 kts 60°
2026-05-06 14:51 14.47574 120.96031 993 ft 139 kts 60°
2026-05-06 14:52 14.48053 120.96892 834 ft 139 kts 60°
2026-05-06 14:52 14.48535 120.97761 663 ft 139 kts 60°
2026-05-06 14:52 14.49017 120.98624 479 ft 139 kts 60°
2026-05-06 14:52 14.49500 120.99491 297 ft 138 kts 61°
2026-05-06 14:53 14.49976 121.00348 109 ft 139 kts 63°
2026-05-06 14:53 14.50432 121.01176 90 ft 119 kts 62°
2026-05-06 14:53 14.50764 121.01789 90 ft 72 kts 60°
2026-05-06 14:53 14.50966 121.02130 90 ft 49 kts 52°
2026-05-06 14:54 14.51157 121.02312 90 ft 14 kts
2026-05-06 14:54 14.51181 121.02269 90 ft 7 kts 251°
2026-05-06 14:54 14.51164 121.02214 90 ft 7 kts 249°
2026-05-06 14:54 14.51137 121.02161 90 ft 9 kts 241°
2026-05-06 14:55 14.51102 121.02097 90 ft 10 kts 240°
2026-05-06 14:55 14.51084 121.02064 90 ft 4 kts 240°
2026-05-06 14:55 14.51068 121.02032 90 ft 5 kts 251°
2026-05-06 14:55 14.51072 121.01990 90 ft 6 kts 297°
2026-05-06 14:56 14.51104 121.01954 90 ft 7 kts 314°
2026-05-06 14:56 14.51148 121.01908 90 ft 9 kts 315°
2026-05-06 14:56 14.51200 121.01855 90 ft 11 kts 315°
2026-05-06 14:56 14.51258 121.01794 90 ft 12 kts 315°
2026-05-06 14:57 14.51376 121.01672 90 ft 10 kts 315°
2026-05-06 14:57 14.51429 121.01618 90 ft 10 kts 315°
2026-05-06 14:57 14.51487 121.01559 90 ft 12 kts 317°
2026-05-06 14:58 14.51513 121.01558 90 ft 3 kts 42°
2026-05-06 14:58 14.51520 121.01567 90 ft 2 kts 47°
2026-05-06 14:58 14.51538 121.01585 90 ft 4 kts 44°
2026-05-06 14:58 14.51558 121.01605 90 ft 3 kts 45°
2026-05-06 14:59 14.51564 121.01612 90 ft 0 kts 45°